TimeCST,TemperatureF,Dew PointF,Humidity,Sea Level PressureIn,VisibilityMPH,Wind Direction,Wind SpeedMPH,Gust SpeedMPH,PrecipitationIn,Events,Conditions,WindDirDegrees,DateUTC
12:15 AM,41.9,40.1,93,29.93,10.0,NW,5.8,-,N/A,,Overcast,320,2013-02-05 06:15:00
12:35 AM,40.8,37.4,88,29.93,10.0,NW,6.9,-,N/A,,Overcast,320,2013-02-05 06:35:00
12:55 AM,38.7,33.6,82,29.93,10.0,NW,3.5,-,N/A,,Scattered Clouds,320,2013-02-05 06:55:00
1:15 AM,38.3,33.8,84,29.93,10.0,Calm,Calm,-,N/A,,Mostly Cloudy,0,2013-02-05 07:15:00
1:35 AM,37.2,32.9,84,29.93,10.0,NW,3.5,-,N/A,,Overcast,310,2013-02-05 07:35:00
1:55 AM,36.3,32.0,84,29.93,10.0,WNW,3.5,-,N/A,,Mostly Cloudy,300,2013-02-05 07:55:00
2:15 AM,35.8,32.0,86,29.93,10.0,NW,5.8,-,N/A,,Scattered Clouds,320,2013-02-05 08:15:00
2:35 AM,34.9,31.5,87,29.94,10.0,NNW,4.6,-,N/A,,Scattered Clouds,330,2013-02-05 08:35:00
2:55 AM,34.2,30.7,87,29.94,10.0,Calm,Calm,-,N/A,,Clear,0,2013-02-05 08:55:00
3:15 AM,33.4,30.4,89,29.93,10.0,Calm,Calm,-,N/A,,Clear,0,2013-02-05 09:15:00
3:35 AM,33.1,30.2,89,29.93,10.0,Calm,Calm,-,N/A,,Clear,0,2013-02-05 09:35:00
3:55 AM,32.7,30.0,90,29.94,10.0,NNW,5.8,-,N/A,,Clear,340,2013-02-05 09:55:00
4:15 AM,32.0,29.5,90,29.94,10.0,NNW,3.5,-,N/A,,Clear,340,2013-02-05 10:15:00
4:35 AM,32.0,29.8,92,29.94,10.0,Calm,Calm,-,N/A,,Clear,0,2013-02-05 10:35:00
4:55 AM,31.5,29.5,92,29.94,10.0,Calm,Calm,-,N/A,,Clear,0,2013-02-05 10:55:00
5:15 AM,30.7,29.7,96,29.94,7.0,Calm,Calm,-,N/A,,Clear,0,2013-02-05 11:15:00
5:35 AM,30.4,29.7,97,29.94,7.0,Calm,Calm,-,N/A,,Clear,0,2013-02-05 11:35:00
5:55 AM,29.7,29.3,99,29.95,7.0,Calm,Calm,-,N/A,,Clear,0,2013-02-05 11:55:00
6:15 AM,30.2,30.2,100,29.96,5.0,Calm,Calm,-,N/A,,Clear,0,2013-02-05 12:15:00
6:35 AM,29.8,29.8,100,29.97,5.0,North,4.6,-,N/A,,Clear,350,2013-02-05 12:35:00
6:55 AM,29.8,29.8,100,29.99,4.0,NNW,4.6,-,N/A,,Scattered Clouds,340,2013-02-05 12:55:00
7:15 AM,29.8,29.7,99,29.99,4.0,North,3.5,-,N/A,,Mostly Cloudy,360,2013-02-05 13:15:00
7:35 AM,30.2,30.2,100,30.00,4.0,NNE,3.5,-,N/A,,Overcast,20,2013-02-05 13:35:00
7:55 AM,31.1,30.9,99,30.00,4.0,Calm,Calm,-,N/A,,Overcast,0,2013-02-05 13:55:00
8:15 AM,32.0,31.5,98,30.00,5.0,Calm,Calm,-,N/A,,Overcast,0,2013-02-05 14:15:00
8:35 AM,33.1,32.9,99,30.00,3.0,Calm,Calm,-,N/A,,Overcast,0,2013-02-05 14:35:00
8:55 AM,33.1,33.1,100,30.01,0.5,Calm,Calm,-,N/A,Fog,Fog,0,2013-02-05 14:55:00
9:15 AM,33.6,33.6,100,30.03,0.5,Calm,Calm,-,N/A,Fog,Fog,0,2013-02-05 15:15:00
10:15 AM,36.1,36.1,100,30.03,3.0,South,6.9,-,N/A,,Overcast,180,2013-02-05 16:15:00
10:35 AM,38.8,38.3,98,30.02,4.0,SSE,4.6,-,N/A,,Overcast,160,2013-02-05 16:35:00
10:55 AM,39.6,37.6,93,30.01,5.0,South,5.8,-,N/A,,Overcast,170,2013-02-05 16:55:00
11:15 AM,41.4,38.7,90,30.00,5.0,South,8.1,-,N/A,,Mostly Cloudy,180,2013-02-05 17:15:00
11:35 AM,42.6,39.0,87,29.99,7.0,South,5.8,-,N/A,,Scattered Clouds,180,2013-02-05 17:35:00
11:55 AM,44.2,39.0,82,29.98,10.0,SW,5.8,-,N/A,,Scattered Clouds,220,2013-02-05 17:55:00
12:15 PM,46.2,38.5,74,29.97,10.0,South,6.9,-,N/A,,Clear,190,2013-02-05 18:15:00
12:55 PM,49.3,38.8,67,29.95,10.0,SSW,9.2,-,N/A,,Clear,200,2013-02-05 18:55:00
1:15 PM,49.1,38.8,68,29.94,10.0,South,6.9,-,N/A,,Clear,180,2013-02-05 19:15:00
1:35 PM,50.7,38.3,62,29.94,10.0,SW,8.1,-,N/A,,Clear,220,2013-02-05 19:35:00
1:55 PM,52.3,38.1,58,29.94,10.0,SW,10.4,-,N/A,,Clear,230,2013-02-05 19:55:00
2:15 PM,53.1,38.5,58,29.94,10.0,WSW,6.9,-,N/A,,Clear,240,2013-02-05 20:15:00
2:35 PM,54.0,39.6,58,29.94,10.0,SW,8.1,-,N/A,,Clear,220,2013-02-05 20:35:00
2:55 PM,54.1,36.7,52,29.94,10.0,WSW,9.2,-,N/A,,Clear,250,2013-02-05 20:55:00
3:15 PM,54.3,38.1,54,29.94,10.0,SW,8.1,-,N/A,,Clear,230,2013-02-05 21:15:00
3:55 PM,53.4,38.7,57,29.95,10.0,SW,8.1,-,N/A,,Clear,230,2013-02-05 21:55:00
4:15 PM,53.1,39.2,59,29.95,10.0,WSW,8.1,-,N/A,,Clear,240,2013-02-05 22:15:00
4:35 PM,52.9,38.8,59,29.95,10.0,SW,5.8,-,N/A,,Clear,230,2013-02-05 22:35:00
5:15 PM,50.4,37.9,62,29.96,10.0,WSW,5.8,-,N/A,,Clear,240,2013-02-05 23:15:00
5:35 PM,49.1,37.8,65,29.96,10.0,WSW,3.5,-,N/A,,Clear,240,2013-02-05 23:35:00
5:55 PM,48.4,37.9,67,29.97,10.0,WSW,4.6,-,N/A,,Clear,250,2013-02-05 23:55:00
6:15 PM,47.7,37.9,69,29.98,10.0,WSW,3.5,-,N/A,,Clear,250,2013-02-06 00:15:00
6:35 PM,45.0,36.9,73,29.98,10.0,SW,4.6,-,N/A,,Clear,230,2013-02-06 00:35:00
6:55 PM,43.7,37.2,78,29.99,10.0,Calm,Calm,-,N/A,,Clear,0,2013-02-06 00:55:00
7:15 PM,44.6,37.9,77,30.00,10.0,Calm,Calm,-,N/A,,Clear,0,2013-02-06 01:15:00
8:15 PM,40.1,37.2,89,30.03,10.0,Calm,Calm,-,N/A,,Clear,0,2013-02-06 02:15:00
8:35 PM,37.6,36.7,97,30.03,7.0,Calm,Calm,-,N/A,,Clear,0,2013-02-06 02:35:00
8:55 PM,36.3,36.0,99,30.04,7.0,Calm,Calm,-,N/A,,Clear,0,2013-02-06 02:55:00
9:15 PM,35.8,35.2,98,30.05,4.0,Calm,Calm,-,N/A,,Clear,0,2013-02-06 03:15:00
9:35 PM,36.9,36.9,100,30.06,3.0,Calm,Calm,-,N/A,,Clear,0,2013-02-06 03:35:00
9:55 PM,36.3,36.3,100,30.06,2.5,Calm,Calm,-,N/A,,Clear,0,2013-02-06 03:55:00
10:15 PM,36.7,36.7,100,30.07,2.5,Calm,Calm,-,N/A,,Clear,0,2013-02-06 04:15:00
10:35 PM,34.7,34.7,100,30.07,1.8,Calm,Calm,-,N/A,,Mist,0,2013-02-06 04:35:00
10:55 PM,36.9,36.9,100,30.08,1.5,Calm,Calm,-,N/A,,Mist,0,2013-02-06 04:55:00
11:15 PM,36.7,36.7,100,30.09,0.8,NNW,3.5,-,N/A,,Mist,330,2013-02-06 05:15:00
11:35 PM,39.7,39.7,100,30.09,4.0,North,5.8,-,N/A,,Clear,350,2013-02-06 05:35:00
11:55 PM,39.2,39.2,100,30.10,7.0,North,3.5,-,N/A,,Clear,360,2013-02-06 05:55:00